Weather History for Belize, Belize

Change the Weather History Date:

Wednesday, February 19, 2014

  Actual Average Record
Temperature  
Mean Temperature 80 °F -  
Max Temperature 84 °F 84 °F 86 °F (1998)
Min Temperature 75 °F - 62 °F (2004)
Cooling Degree Days 14    
Growing Degree Days 30 (Base 50)    
Moisture  
Dew Point 73 °F    
Average Humidity 75    
Maximum Humidity 89    
Minimum Humidity 62    
Precipitation  
Precipitation 0.04 in 0.08 in - ()
Sea Level Pressure  
Sea Level Pressure 29.95 in    
Wind  
Wind Speed 8 mph ()    
Max Wind Speed 14 mph    
Max Gust Speed -    
Visibility 8.4 miles    
Events Rain    
Averages and records for this station are not official NWS values.
T = Trace of Precipitation, MM = Missing Value Source: Averaged Metar Reports

Daily Weather History Graph

Daily Weather History Graph

Search for Another Location

Airport:

Trip Planner

Search our weather history database for the weather conditions in past years. The results will help you decide how hot, cold, wet, or windy it might be!

Date:

Astronomy

Feb. 19, 2014 Rise Set
Actual Time 6:17 AM CST 5:56 PM CST
Civil Twilight 5:55 AM CST 6:18 PM CST
Nautical Twilight 5:30 AM CST 6:43 PM CST
Astronomical Twilight 5:04 AM CST 7:09 PM CST
Moon 10:00 PM CST (2/19) 9:07 AM CST (2/19)
Length of Visible Light 12h 22m
Length of Day
11h 38m
Waning Gibbous, 79% of the Moon is Illuminated
Feb 19
Waning Gibbous
Feb 22
Last Quarter
Mar 1
New
Mar 8
First Quarter
Mar 16
Full

Hourly Weather History & Observations

Time (CST) Temp. Heat Index Dew Point Humidity Pressure Visibility Wind Dir Wind Speed Gust Speed Precip Events Conditions
12:00 AM 79 °F - 74 °F 79% 29.99 in 12 mi East 11.5 mph - -   Partly Cloudy
3:00 AM 77 °F - 72 °F 80% 29.95 in 12 mi East 6.9 mph - -   Partly Cloudy
5:00 AM 77.0 °F - 71.6 °F 83% 29.94 in 6.2 mi East 6.9 mph - N/A   Partly Cloudy
6:00 AM 77 °F - 72 °F 79% 29.97 in 12 mi East 9.2 mph - -   Partly Cloudy
6:00 AM 77.0 °F - 71.6 °F 83% 29.96 in 6.2 mi East 9.2 mph - N/A   Mostly Cloudy
7:00 AM 78.8 °F - 71.6 °F 78% 29.97 in 6.2 mi East 6.9 mph - N/A   Partly Cloudy
8:00 AM 80.6 °F 85.4 °F 73.4 °F 79% 29.99 in 6.2 mi East 6.9 mph - N/A   Scattered Clouds
9:00 AM 82 °F - 74 °F 70% 30.00 in 12 mi East 10.4 mph - - Rain Light Rain Showers
9:00 AM 82.4 °F 88.2 °F 73.4 °F 74% 30.00 in 6.2 mi East 10.4 mph - N/A   Scattered Clouds
10:00 AM 84.2 °F 90.9 °F 73.4 °F 70% 30.01 in 6.2 mi East 11.5 mph - N/A   Scattered Clouds
11:00 AM 84.2 °F 90.9 °F 73.4 °F 70% 30.00 in 6.2 mi East 12.7 mph - N/A   Scattered Clouds
12:00 PM 84 °F - 73 °F 62% 29.98 in 14 mi East 13.8 mph - -   Partly Cloudy
12:00 PM 84.2 °F 90.9 °F 73.4 °F 70% 29.97 in 6.2 mi East 13.8 mph - N/A   Scattered Clouds
1:00 PM 84.2 °F 90.9 °F 73.4 °F 70% 29.94 in 6.2 mi ENE 12.7 mph - N/A   Scattered Clouds
2:00 PM 84.2 °F 89.6 °F 71.6 °F 66% 29.92 in 6.2 mi East 11.5 mph - N/A   Scattered Clouds
3:00 PM 82 °F - 72 °F 65% 29.92 in 14 mi East 10.4 mph - -   Partly Cloudy
3:00 PM 82.4 °F 87.2 °F 71.6 °F 70% 29.91 in 6.2 mi East 10.4 mph - N/A   Scattered Clouds
4:00 PM 82.4 °F 88.2 °F 73.4 °F 74% 29.90 in 6.2 mi East 9.2 mph - N/A   Scattered Clouds
5:00 PM 82.4 °F 88.2 °F 73.4 °F 74% 29.90 in 6.2 mi East 8.1 mph - N/A   Partly Cloudy
6:00 PM 80 °F - 72 °F 72% 29.92 in 12 mi East 5.8 mph - -   Scattered Clouds
6:00 PM 80.6 °F 85.4 °F 73.4 °F 79% 29.91 in 6.2 mi East 5.8 mph - N/A   Partly Cloudy
7:00 PM 78.8 °F - 75.2 °F 89% 29.92 in 6.2 mi East 6.9 mph - N/A   Partly Cloudy
9:00 PM 78 °F - 73 °F 81% 29.95 in 12 mi East 4.6 mph - -   Scattered Clouds